#timestamp,LO_Frequency,Hit,StdDev 
1566590415.7,286046999.8,N
1566590435.5,286046999.8,N
1566590455.4,286047000.0,N
1566590475.2,286046998.4,N
1566590495.0,286046999.8,N
1566590495.9,286046999.8,N
1566590515.8,286047001.2,N
1566590535.6,286047000.1,N
1566590555.4,286047001.0,N
1566590575.3,286046998.8,N
1566590595.1,286046998.5,N
1566590615.9,286047000.5,N
1566590635.7,286046999.6,N
1566590655.5,286046999.2,N
1566590675.4,286046998.9,N
1566590695.2,286046999.1,N
1566590715.0,286047000.9,N
1566590716.0,286047000.9,N
1566590735.8,286046998.1,N
1566590755.6,286046998.9,N
1566590775.5,286046997.9,N
1566590795.3,286046997.2,N
1566590815.1,286046997.4,N
1566590835.9,286046999.5,N
1566590855.7,286046996.5,N
1566590875.6,286047001.1,N
1566590895.4,286047000.0,N
1566590915.2,286047000.2,N
1566590935.1,286046999.0,N
1566590936.0,286046999.0,N
1566590955.8,286046996.6,N
1566590975.6,286046996.5,N
1566590995.5,286046997.8,N
1566591015.3,286046996.6,N
1566591035.2,286046999.3,N
1566591055.9,286047000.9,N
1566591075.7,286047000.5,N
1566591095.6,286046996.7,N
1566591115.4,286046998.0,N
1566591135.2,286046997.7,N
1566591155.1,286046996.6,N
1566591156.0,286046996.6,N
1566591175.8,286046999.4,N
1566591195.7,286046998.7,N
1566591215.5,286046999.2,N
1566591235.3,286046998.6,N
1566591255.2,286046998.6,N
1566591275.0,286046998.4,N
1566591275.9,286046998.4,N
1566591295.8,286047000.3,N
1566591315.6,286047000.6,N
1566591335.4,286047001.1,N
1566591355.3,286046999.1,N
1566591375.1,286046999.6,N
1566591395.8,286046998.7,N
1566591415.7,286046996.6,N
1566591435.5,286046997.6,N
1566591455.4,286046995.0,Y
1566591475.2,286046998.3,P
1566591495.0,286046998.9,P
1566591495.9,286046998.9,P
1566591515.8,286046997.7,Y
1566591535.6,286046995.5,P
1566591555.5,286046995.1,P
1566591575.3,286046996.2,N
1566591595.1,286046995.5,Y
1566591615.9,286047000.2,P
1566591635.7,286046999.8,N
1566591655.6,286047001.1,N
1566591675.4,286046998.5,N
1566591695.2,286047000.1,N
1566591715.1,286047000.4,N
1566591716.0,286047000.4,N
1566591735.8,286047000.5,N
1566591755.7,286047002.0,N
1566591775.5,286047002.1,N
1566591795.3,286047003.7,N
1566591815.2,286047000.1,N
1566591835.9,286046998.4,N
1566591855.7,286047000.3,N
1566591875.6,286047001.7,N
1566591895.4,286047002.4,N
1566591915.2,286047000.9,N
1566591935.1,286047000.8,N
1566591936.0,286047000.8,N
1566591955.8,286047000.5,N
1566591975.7,286047000.1,N
1566591995.5,286047000.7,N
1566592015.3,286046997.3,N
1566592035.2,286046995.1,Y
1566592055.0,286046995.3,P
1566592055.9,286046995.3,N
1566592075.8,286046997.9,N
1566592095.6,286046995.4,N
1566592115.4,286046997.3,N
1566592135.3,286046997.3,N
1566592155.1,286046995.0,N
1566592175.8,286046997.3,N
1566592195.7,286046995.9,N
1566592215.5,286046995.7,N
1566592235.4,286046995.6,N
1566592255.2,286046997.3,N
1566592275.0,286046996.5,N
1566592275.9,286046996.5,N
1566592295.8,286046997.9,N
1566592315.6,286046998.0,N
1566592335.4,286046995.0,Y
1566592355.3,286046999.7,P
1566592375.1,286047002.8,N
1566592395.9,286047002.6,N
1566592415.7,286047002.1,N
1566592435.5,286047002.4,N
1566592455.4,286047002.6,N
1566592475.2,286047002.3,N
1566592495.0,286046999.7,N
1566592495.9,286046999.7,N
1566592515.8,286047001.8,N
1566592535.6,286047004.3,N
1566592555.5,286047001.4,N
1566592575.3,286047001.3,N
1566592595.1,286047002.2,N
1566592615.9,286047000.3,N
1566592635.7,286047001.0,N
1566592655.5,286046998.1,N
1566592675.4,286046999.4,N
1566592695.2,286046999.1,N
1566592715.1,286046996.5,N
1566592716.0,286046996.5,N
1566592735.8,286046999.1,N
1566592755.6,286047000.5,N
1566592775.5,286046999.7,N
1566592795.3,286047002.7,N
1566592815.1,286047000.7,N
1566592835.9,286047000.1,N
1566592855.7,286047002.2,N
1566592875.6,286046998.5,N
1566592895.4,286046998.4,N
1566592915.2,286047000.8,N
1566592935.1,286047002.7,N
1566592936.0,286047002.7,N
1566592955.8,286047000.0,N
1566592975.6,286046998.6,N
1566592995.5,286046999.2,N
1566593015.3,286046999.0,N
1566593035.2,286046998.5,N
1566593055.9,286047001.1,N
1566593075.7,286047000.6,N
1566593095.6,286047001.2,N
1566593115.4,286046999.5,N
1566593135.2,286046999.3,N
1566593155.1,286047000.7,N
1566593156.0,286047000.7,N
1566593175.8,286047001.2,N
1566593195.7,286046998.6,N
1566593215.5,286046998.9,N
1566593235.3,286047000.4,N
1566593255.2,286047000.3,N
1566593275.0,286046998.3,N
1566593275.9,286046998.3,N
1566593295.7,286047002.8,N
1566593315.6,286047002.1,N
1566593335.4,286046999.7,N
1566593355.3,286047002.0,N
1566593375.1,286047004.4,Y
1566593395.8,286047001.7,P
1566593415.7,286047003.7,P
1566593435.5,286047004.3,N
1566593455.4,286047004.3,N
1566593475.2,286047002.2,N
1566593495.0,286046999.7,N
1566593495.9,286046999.7,N
1566593515.8,286047002.3,N
1566593535.6,286047002.1,N
1566593555.4,286047001.5,N
1566593575.3,286047002.0,N
1566593595.1,286047001.9,N
1566593615.9,286047001.0,N
1566593635.7,286046999.8,N
1566593655.5,286047001.5,N
1566593675.4,286047002.2,N
1566593695.2,286047000.4,N
1566593715.0,286047000.9,N
1566593715.9,286047000.9,N
1566593735.8,286046999.4,N
1566593755.6,286046997.0,N
1566593775.5,286046997.5,N
1566593795.3,286046999.5,N
1566593815.1,286046998.4,N
1566593835.9,286046999.3,N
1566593855.7,286047001.0,N
1566593875.5,286047000.9,N
1566593895.4,286047000.3,N
1566593915.2,286047001.0,N
1566593935.1,286046998.7,N
1566593936.0,286046998.7,N
1566593955.8,286046999.9,N
1566593975.6,286046998.2,N
1566593995.5,286047000.9,N
